Regional Weather Roundup
Issued by NWS

Home | Current Version | Previous Version | Text Only | Print | Product List | Glossary Off
Versions: 1 2 3 4 5 6 7 8 9 10 11 12 13 14 15 16 17 18 19 20 21 22 23 24 25 26 27 28 29 30 31 32 33 34 35 36 37 38 39 40 41 42 43 44 45 46 47 48 49 50

000
ASUS45 KCYS 271510
RWRWY

WYOMING REGIONAL WEATHER ROUNDUP
NATIONAL WEATHER SERVICE CHEYENNE WY
800 AM MST SAT DEC 27 2014

NOTE:  "FAIR" INDICATES FEW OR NO CLOUDS BELOW 12,000 FEET
WITH NO SIGNIFICANT WEATHER AND/OR OBSTRUCTIONS TO VISIBILITY.

WYZ001-271600-
YELLOWSTONE NATIONAL PARK

CITY           SKY/WX    TMP DP  RH WIND       PRES   REMARKS
LK YELLOWSTONE   N/A      5   1  83 VRB3      30.09R
W YELLOWSTONE  NOT AVBL

$$
WYZ002>013-054>058-071-098>099-271600-
NORTHERN WYOMING

CITY           SKY/WX    TMP DP  RH WIND       PRES   REMARKS
JACKSON        CLOUDY    -8  -9  92 NE8       30.18R HAZE    WCI -23
CODY           FAIR      21   1  42 W17G29    29.99F WCI   7
GREYBULL       FOG        2   1  96 VRB3      30.13F VSB<1/4
WORLAND        FOG       -7  -9  91 S3        30.11F VSB 1/4
SHERIDAN       FAIR      -3  -8  79 CALM      30.03F
BUFFALO        FAIR      10  -1  61 W8        30.00S WCI  -2
GILLETTE       FAIR      14   7  73 SW14      30.04F WCI  -1
HULETT           N/A    N/A N/A N/A MISG        N/A
NEWCASTLE      FAIR      12  10  92 E3        30.10S

$$
WYZ014>020-022>026-101>103-271600-
CENTRAL WYOMING

CITY           SKY/WX    TMP DP  RH WIND       PRES   REMARKS
BIG PINEY      FAIR     -11 -15  82 E6        30.14R WCI -25
PINEDALE       FAIR     -13 -17  84 NW6       30.13S WCI -27
DUBOIS         NOT AVBL
LANDER         FAIR       6  -1  73 W3        30.05S
RIVERTON       FAIR       3   0  87 SW10      30.06F WCI -12
CASPER         FAIR      10   3  73 SW16      30.06F WCI  -7
DOUGLAS        FAIR      -1  -4  87 E3        30.09F

$$
WYZ021-027>030-104>119-271600-
SOUTHERN WYOMING

CITY           SKY/WX    TMP DP  RH WIND       PRES   REMARKS
EVANSTON       FAIR       4   0  83 S8        30.18R WCI  -9
KEMMERER       FLURRIES   3   1  92 W9        30.15S WCI -11
FORT BRIDGER   FAIR      11   3  70 SW15      30.19S WCI  -5
ROCK SPRINGS   FAIR       5   1  83 W17       30.14S WCI -14
DIXON          LGT SNOW   1  -3  83 CALM      30.22R
RAWLINS        CLOUDY     6   1  80 SW15      30.10S WCI -12
SARATOGA       FAIR      -8 -11  84 S9        30.11F WCI -25
LARAMIE        FAIR     -14 -16  91 SW9       30.03S WCI -33
CHEYENNE       FAIR       5  -4  66 W10       30.06S WCI -10
TORRINGTON     FAIR       1  -2  87 CALM      30.14S
PINE BLUFFS    FAIR       1  -4  78 MISG      30.12S

$$


USA.gov is the U.S. government's official web portal to all federal, state and local government web resources and services.